Home   Weather   Muskegon   Past weeks
Flag for USA

Past Weather in Muskegon, Michigan, USA — Yesterday and Last 2 Weeks

Now
76 °F

Passing clouds.


Feels Like: 78 °F
Forecast: 78 / 61 °F
Wind: 17 mph from North

Location: Muskegon County Airport

Current Time: Jul 22, 2019 at 7:07:12 pm

Latest Report: Jul 22, 2019 at 5:55 pm


Visibility: 10 mi

Pressure: 30.02 "Hg

Humidity: 42%

Dew Point: 51 °F

Location of MuskegonLocation

Past Weather in Muskegon — Graph

°F

Muskegon Temperature Yesterday

Maximum temperature yesterday: 87 °F (at 1:55 pm)
Minimum temperature yesterday: 69 °F (at 5:55 am)
Average temperature yesterday: 79 °F

High & Low Weather Summary for the Past Weeks

 TemperatureHumidityPressure
High89 °F (Jul 17, 2:55 pm)94% (Jul 20, 5:55 am)30.17 "Hg (Jul 20, 5:55 am)
Low52 °F (Jul 12, 5:55 am)30% (Jul 14, 3:55 pm)29.71 "Hg (Jul 18, 1:55 pm)
Average75 °F67%29.94 "Hg
* Reported Jul 7 5:55 pm — Jul 22 5:55 pm, Muskegon. Weather by CustomWeather, © 2019

Note: Actual official high and low records may vary slightly from our data, if they occured in-between our weather recording intervals... More about our weather records

Advertising

Muskegon Weather History for the Previous 24 Hours

Scroll right to see more
 ConditionsComfort  
Time TempWeatherWind HumidityBarometerVisibility
5:55 pm
Mon, Jul 22
76 °FPassing clouds.17 mph42%30.02 "Hg10 mi
4:55 pm77 °FPassing clouds.12 mph48%30.02 "Hg10 mi
3:55 pm75 °FScattered clouds.12 mph50%30.02 "Hg10 mi
2:55 pm76 °FScattered clouds.14 mph48%30.02 "Hg10 mi
1:55 pm75 °FScattered clouds.15 mph48%30.03 "Hg10 mi
12:55 pm74 °FPassing clouds.12 mph56%30.03 "Hg10 mi
11:55 am77 °FPassing clouds.12 mph50%30.03 "Hg10 mi
10:55 am74 °FPassing clouds.9 mph52%30.02 "Hg10 mi
9:55 am70 °FScattered clouds.14 mph57%30.04 "Hg10 mi
8:55 am66 °FPartly sunny.12 mph63%30.05 "Hg10 mi
7:55 am64 °FBroken clouds.9 mph70%30.03 "Hg10 mi
6:55 am64 °FPartly sunny.9 mph70%30.01 "Hg10 mi
5:55 am66 °FPassing clouds.9 mph65%30.01 "Hg10 mi
10:55 pm
Sun, Jul 21
71 °FPartly cloudy.8 mph66%29.97 "Hg10 mi
9:55 pm75 °FPartly cloudy.10 mph60%29.97 "Hg10 mi
8:55 pm80 °FScattered clouds.7 mph56%29.96 "Hg10 mi
7:55 pm81 °FBroken clouds.8 mph53%29.94 "Hg10 mi
Weather by CustomWeather, © 2019

See weather overview